Osceola, WI

2:21 PM CDT on July 22, 2017 (GMT -0500)
Simenstad Municipal

Weather History for KOEO - July, 2013

Change the Weather History Date:

Thursday, July 18, 2013

  Actual Average (KANE) Record (KANE)
Temperature  
Mean Temperature 83 °F -  
Max Temperature 92 °F 79 °F 93 °F (2001)
Min Temperature 74 °F 61 °F 51 °F (2000)
Cooling Degree Days 18    
Growing Degree Days 33 (Base 50)    
Moisture  
Dew Point 70 °F    
Average Humidity 64    
Maximum Humidity 88    
Minimum Humidity 45    
Precipitation  
Precipitation 0.00 in - - ()
Sea Level Pressure  
Sea Level Pressure 29.97 in    
Wind  
Wind Speed 8 mph (SSW)    
Max Wind Speed 22 mph    
Max Gust Speed 34 mph    
Visibility 10 miles    
Events      
Averages and records for this station are not official NWS values.
T = Trace of Precipitation, MM = Missing Value Source: NWS Daily Summary

Daily Weather History Graph

Daily Weather History Graph

Search for Another Location

Airport or City:

Trip Planner

Search our weather history database for the weather conditions in past years. The results will help you decide how hot, cold, wet, or windy it might be!

Date:

Astronomy

Jul. 18, 2013 Rise Set
Actual Time 5:40 AM CDT 8:53 PM CDT
Civil Twilight 5:04 AM CDT 9:28 PM CDT
Nautical Twilight 4:18 AM CDT 10:15 PM CDT
Astronomical Twilight 3:20 AM CDT 11:11 PM CDT
Moon 4:49 PM CDT (7/18) 1:34 AM CDT (7/18)
Length of Visible Light 16h 24m
Length of Day
15h 12m
Waxing Gibbous, 77% of the Moon is Illuminated
Jul 18
Waxing Gibbous
Jul 22
Full
Jul 29
Last Quarter
Aug 6
New
Aug 14
First Quarter

Hourly Weather History & Observations

Time (CDT) Temp. Heat Index Dew Point Humidity Pressure Visibility Wind Dir Wind Speed Gust Speed Precip Events Conditions
12:15 AM 77.2 °F - 70.7 °F 80% 30.14 in 10.0 mi South 4.6 mph - N/A   Clear
12:35 AM 77.0 °F - 70.7 °F 81% 30.14 in 10.0 mi South 3.5 mph - N/A   Clear
12:55 AM 76.6 °F - 70.7 °F 82% 30.14 in 10.0 mi Calm Calm - N/A   Clear
1:15 AM 76.5 °F - 70.3 °F 81% 30.13 in 10.0 mi Calm Calm - N/A   Clear
1:35 AM 76.3 °F - 70.5 °F 82% 30.13 in 10.0 mi Calm Calm - N/A   Clear
1:55 AM 76.1 °F - 70.3 °F 82% 30.12 in 10.0 mi Calm Calm - N/A   Clear
2:15 AM 75.6 °F - 70.3 °F 84% 30.12 in 10.0 mi South 3.5 mph - N/A   Clear
2:35 AM 74.8 °F - 70.2 °F 85% 30.12 in 10.0 mi South 4.6 mph - N/A   Clear
2:55 AM 75.9 °F - 70.9 °F 84% 30.11 in 10.0 mi South 4.6 mph - N/A   Clear
3:15 AM 76.5 °F - 71.1 °F 83% 30.11 in 10.0 mi South 3.5 mph - N/A   Clear
3:35 AM 77.2 °F - 70.9 °F 81% 30.11 in 10.0 mi SSW 4.6 mph - N/A   Clear
3:55 AM 77.9 °F - 70.7 °F 78% 30.11 in 10.0 mi SW 5.8 mph - N/A   Clear
4:15 AM 77.0 °F - 70.7 °F 81% 30.10 in 10.0 mi SSW 3.5 mph - N/A   Clear
4:35 AM 76.5 °F - 70.7 °F 82% 30.10 in 10.0 mi South 4.6 mph - N/A   Clear
4:55 AM 74.3 °F - 70.5 °F 88% 30.09 in 10.0 mi South 3.5 mph - N/A   Clear
5:15 AM 74.5 °F - 70.7 °F 88% 30.09 in 10.0 mi South 4.6 mph - N/A   Clear
5:35 AM 74.5 °F - 70.9 °F 88% 30.08 in 10.0 mi South 5.8 mph - N/A   Clear
5:55 AM 74.7 °F - 70.9 °F 88% 30.08 in 10.0 mi South 4.6 mph - N/A   Clear
6:15 AM 75.2 °F - 71.1 °F 87% 30.08 in 10.0 mi South 5.8 mph - N/A   Clear
6:35 AM 75.6 °F - 71.1 °F 86% 30.08 in 10.0 mi South 4.6 mph - N/A   Clear
6:55 AM 76.5 °F - 71.4 °F 84% 30.07 in 10.0 mi South 4.6 mph - N/A   Clear
7:15 AM 77.4 °F - 71.6 °F 82% 30.07 in 10.0 mi South 5.8 mph - N/A   Clear
7:35 AM 78.4 °F - 71.6 °F 79% 30.06 in 10.0 mi South 4.6 mph - N/A   Clear
7:55 AM 79.9 °F - 71.4 °F 75% 30.06 in 10.0 mi SSW 6.9 mph - N/A   Clear
8:15 AM 80.8 °F 84.7 °F 71.4 °F 73% 30.05 in 10.0 mi SSW 9.2 mph - N/A   Clear
8:35 AM 81.7 °F 86.3 °F 72.0 °F 72% 30.04 in 10.0 mi SSW 10.4 mph - N/A   Clear
8:55 AM 82.8 °F 87.7 °F 71.8 °F 69% 30.04 in 10.0 mi SSW 10.4 mph 16.1 mph N/A   Clear
9:15 AM 83.8 °F 88.9 °F 71.6 °F 66% 30.04 in 10.0 mi SSW 11.5 mph - N/A   Clear
9:35 AM 84.7 °F 90.4 °F 71.6 °F 65% 30.02 in 10.0 mi SSW 11.5 mph 17.3 mph N/A   Clear
9:55 AM 85.8 °F 91.5 °F 71.4 °F 62% 30.02 in 10.0 mi SW 13.8 mph 18.4 mph N/A   Clear
10:15 AM 86.7 °F 92.5 °F 71.2 °F 60% 30.01 in 10.0 mi SSW 10.4 mph 17.3 mph N/A   Clear
10:35 AM 87.4 °F 92.3 °F 70.2 °F 56% 30.01 in 10.0 mi SW 13.8 mph - N/A   Clear
10:55 AM 87.8 °F 93.0 °F 70.3 °F 56% 30.00 in 10.0 mi WSW 15.0 mph 19.6 mph N/A   Clear
11:15 AM 88.3 °F 93.2 °F 69.6 °F 54% 29.99 in 10.0 mi SW 12.7 mph - N/A   Clear
11:35 AM 89.4 °F 94.8 °F 70.0 °F 53% 29.99 in 10.0 mi SSW 16.1 mph - N/A   Clear
11:55 AM 89.6 °F 94.3 °F 69.3 °F 51% 29.99 in 10.0 mi SW 17.3 mph 24.2 mph N/A   Clear
12:15 PM 89.6 °F 94.3 °F 69.4 °F 51% 29.98 in 10.0 mi SW 19.6 mph 25.3 mph N/A   Clear
12:35 PM 90.3 °F 95.2 °F 69.4 °F 50% 29.97 in 10.0 mi SSW 15.0 mph 20.7 mph N/A   Clear
12:55 PM 90.5 °F 95.5 °F 69.4 °F 50% 29.97 in 10.0 mi SW 17.3 mph 24.2 mph N/A   Clear
1:15 PM 90.9 °F 95.3 °F 68.5 °F 48% 29.96 in 10.0 mi SW 18.4 mph 26.5 mph N/A   Clear
1:35 PM 91.6 °F 97.2 °F 70.2 °F 49% 29.96 in 10.0 mi SW 16.1 mph 25.3 mph N/A   Clear
1:55 PM 91.6 °F 95.7 °F 68.4 °F 46% 29.95 in 10.0 mi SW 21.9 mph 34.5 mph N/A   Scattered Clouds
2:15 PM 91.9 °F 96.9 °F 68.9 °F 47% 29.94 in 10.0 mi SW 20.7 mph 25.3 mph N/A   Scattered Clouds
2:35 PM 91.9 °F 96.4 °F 68.5 °F 46% 29.93 in 10.0 mi SW 19.6 mph 26.5 mph N/A   Clear
2:55 PM 92.3 °F 97.0 °F 68.5 °F 46% 29.92 in 10.0 mi SW 18.4 mph 28.8 mph N/A   Clear
3:15 PM 92.5 °F 97.4 °F 69.3 °F 46% 29.91 in 10.0 mi SW 16.1 mph - N/A   Clear
3:35 PM 92.5 °F 96.9 °F 68.5 °F 45% 29.90 in 10.0 mi SW 18.4 mph 26.5 mph N/A   Clear
3:55 PM 92.7 °F 97.2 °F 68.4 °F 45% 29.89 in 10.0 mi SSW 17.3 mph 25.3 mph N/A   Scattered Clouds
4:15 PM 92.5 °F 97.4 °F 68.7 °F 46% 29.88 in 10.0 mi SW 17.3 mph 24.2 mph N/A   Scattered Clouds
5:15 PM 91.6 °F 96.7 °F 69.1 °F 48% 29.86 in 10.0 mi SSW 13.8 mph - N/A   Scattered Clouds
5:35 PM 91.4 °F 95.8 °F 68.4 °F 47% 29.86 in 10.0 mi SW 18.4 mph 23.0 mph N/A   Clear
5:55 PM 91.4 °F 95.8 °F 68.5 °F 47% 29.85 in 10.0 mi SW 13.8 mph - N/A   Clear
6:15 PM 90.9 °F 94.4 °F 67.6 °F 46% 29.84 in 10.0 mi SSW 15.0 mph 27.6 mph N/A   Clear
6:35 PM 90.5 °F 93.8 °F 66.9 °F 46% 29.83 in 10.0 mi SW 17.3 mph 23.0 mph N/A   Clear
6:55 PM 90.0 °F 93.6 °F 67.6 °F 48% 29.83 in 10.0 mi SW 12.7 mph - N/A   Clear
7:15 PM 89.6 °F 92.6 °F 67.1 °F 47% 29.82 in 10.0 mi SW 16.1 mph 23.0 mph N/A   Clear
7:35 PM 88.7 °F 92.6 °F 68.2 °F 51% 29.81 in 10.0 mi SW 10.4 mph - N/A   Clear
7:55 PM 88.2 °F 91.3 °F 67.3 °F 50% 29.81 in 10.0 mi SW 16.1 mph 24.2 mph N/A   Clear
8:15 PM 86.9 °F 90.3 °F 68.0 °F 53% 29.81 in 10.0 mi SW 13.8 mph - N/A   Clear
8:35 PM 86.5 °F 90.0 °F 68.0 °F 54% 29.80 in 10.0 mi SW 10.4 mph - N/A   Clear
8:55 PM 86.0 °F 89.4 °F 68.2 °F 55% 29.80 in 10.0 mi SW 12.7 mph - N/A   Clear
9:15 PM 85.3 °F 88.8 °F 68.4 °F 57% 29.80 in 10.0 mi SW 10.4 mph - N/A   Clear
9:35 PM 85.5 °F 88.8 °F 68.4 °F 56% 29.81 in 10.0 mi SSW 11.5 mph 16.1 mph N/A   Clear
9:55 PM 85.1 °F 88.5 °F 68.4 °F 57% 29.81 in 10.0 mi SSW 10.4 mph - N/A   Clear
10:15 PM 84.9 °F 88.5 °F 68.5 °F 58% 29.80 in 10.0 mi SSW 10.4 mph 17.3 mph N/A   Clear
10:35 PM 84.7 °F 88.2 °F 68.5 °F 58% 29.79 in 10.0 mi SSW 9.2 mph 16.1 mph N/A   Clear
10:55 PM 84.2 °F 87.6 °F 68.5 °F 59% 29.79 in 10.0 mi SSW 10.4 mph - N/A   Clear
11:15 PM 84.2 °F 87.6 °F 68.4 °F 59% 29.79 in 10.0 mi SSW 9.2 mph - N/A   Clear
11:35 PM 84.0 °F 87.3 °F 68.4 °F 59% 29.79 in 10.0 mi SSW 10.4 mph - N/A   Clear
11:55 PM 83.5 °F 86.7 °F 68.2 °F 60% 29.78 in 10.0 mi SSW 11.5 mph 16.1 mph N/A   Clear